IK0AOC Rome IT current weather conditions

sailwx.info

Wind from 053 at 4 knots gusting 7

Air temperature 6.7° C
Dewpoint 4.3° C

Last reported at 2020-Jan-27 08:10 UTC.
Time now 2020-Jan-27 08:32 UTC

Location: N 41°47' E 012°27'.
View on Google Maps.

See reports from other nearby stations

  
Tides and Currents Weather Stations Pressure Air Temp Water Temp Dewpoint Dewpoint Depression Visibility Wind Speed Wind Dir Waves Ship Positions
date/time (UTC)wind fromknots sea level pressurealtimeterstation pressurevisibilityair tempwater tempwave heightnotes
2020-Jan-27 08:10 053 4 gusting 7 6.7
2020-Jan-27 08:05 045 0 gusting 5 6.7
2020-Jan-27 07:55 057 6.1
2020-Jan-27 07:40 051 6.1
2020-Jan-27 07:35 048 0 gusting 7 6.1
2020-Jan-27 07:25 038 5 gusting 10 6.1
2020-Jan-27 07:20 038 6 gusting 10 6.1
2020-Jan-27 07:15 039 6.1
2020-Jan-27 07:10 044 1 gusting 4 6.1
2020-Jan-27 07:05 034 4 gusting 5 5.6
2020-Jan-27 06:35 040 5.6
2020-Jan-27 06:25 040 5.6
2020-Jan-27 06:15 040 5.6
2020-Jan-27 06:05 040 1 gusting 2 5.6
2020-Jan-27 05:40 048 5.6
2020-Jan-27 05:35 048 5.6
2020-Jan-27 04:50 050 5.6
2020-Jan-27 04:40 070 5.6
2020-Jan-27 04:25 065 5.6
2020-Jan-27 04:15 070 5.6
2020-Jan-27 04:05 051 6.1
2020-Jan-27 03:35 036 6.7
2020-Jan-27 03:15 036 6.1
2020-Jan-27 03:05 036 6.1
2020-Jan-27 02:55 038 6.7
2020-Jan-27 02:35 054 7.2
2020-Jan-27 02:20 023 7.2
2020-Jan-27 02:15 023 7.8
2020-Jan-27 02:05 023 7.8
2020-Jan-27 01:55 023 7.8
2020-Jan-27 01:45 044 7.8
2020-Jan-27 01:35 044 7.8
2020-Jan-27 01:25 044 7.8
2020-Jan-27 01:20 044 7.8
2020-Jan-27 01:10 044 7.8
2020-Jan-27 00:55 044 7.8
2020-Jan-27 00:45 033 7.8
2020-Jan-27 00:10 044 8.3
2020-Jan-26 23:55 047 4 gusting 5 8.3
2020-Jan-26 23:40 005 8.9
2020-Jan-26 23:35 008 9.4
2020-Jan-26 23:10 313 8.9
2020-Jan-26 23:05 313 8.9
2020-Jan-26 22:55 323 9.4
2020-Jan-26 22:50 346 0 gusting 10 9.4
2020-Jan-26 22:45 325 8.9
2020-Jan-26 22:40 331 7 gusting 10 8.9
2020-Jan-26 22:35 329 8.9
2020-Jan-26 22:20 321 8.9
2020-Jan-26 22:05 310 6 gusting 8 8.9
2020-Jan-26 21:55 319 9.4
2020-Jan-26 21:50 320 9.4
2020-Jan-26 21:45 321 9.4
2020-Jan-26 21:15 298 9.4
2020-Jan-26 21:00 297 10.0
2020-Jan-26 20:40 293 10.0
2020-Jan-26 20:35 301 6 gusting 7 10.0
2020-Jan-26 20:25 298 2 gusting 6 10.6
2020-Jan-26 20:20 302 2 gusting 6 10.6
2020-Jan-26 20:00 300 10.6
2020-Jan-26 19:40 331 11.1
2020-Jan-26 19:30 331 11.1
2020-Jan-26 19:25 331 11.1
2020-Jan-26 19:10 331 11.1
2020-Jan-26 19:05 332 11.1
2020-Jan-26 19:00 332 11.1
2020-Jan-26 18:40 321 0 gusting 4 11.1
2020-Jan-26 18:30 299 11.1
2020-Jan-26 18:20 320 11.7
2020-Jan-26 18:10 312 11.7
2020-Jan-26 17:55 282 11.7
2020-Jan-26 17:40 280 5 gusting 7 12.2
2020-Jan-26 17:25 280 2 gusting 6 12.2
2020-Jan-26 17:10 274 12.2
2020-Jan-26 17:05 279 4 gusting 7 12.2
2020-Jan-26 16:55 281 6 gusting 10 12.2
2020-Jan-26 16:50 277 1 gusting 10 12.8
2020-Jan-26 16:45 268 4 gusting 10 12.8
2020-Jan-26 16:40 271 0 gusting 7 12.8
2020-Jan-26 16:30 297 12.8
2020-Jan-26 16:05 280 3 gusting 12 13.3
2020-Jan-26 15:55 271 2 gusting 11 13.3
2020-Jan-26 15:50 258 6 gusting 11 13.3
2020-Jan-26 15:45 262 6 gusting 12 13.3
2020-Jan-26 15:35 273 6 gusting 13 13.3
2020-Jan-26 15:20 255 6 gusting 10 13.9
2020-Jan-26 15:10 278 4 gusting 13 14.4
2020-Jan-26 15:00 265 7 gusting 13 14.4
2020-Jan-26 14:45 245 6 gusting 13 15.0
2020-Jan-26 14:40 297 7 gusting 14 15.0
2020-Jan-26 14:30 236 2 gusting 15 15.0
2020-Jan-26 14:20 253 7 gusting 14 14.4
2020-Jan-26 14:10 273 4 gusting 11 15.0
2020-Jan-26 13:50 265 15.0
2020-Jan-26 13:30 195 0 gusting 6 15.0
2020-Jan-26 13:20 175 1 gusting 12 15.0
2020-Jan-26 12:45 262 4 gusting 10 15.0
2020-Jan-26 12:40 274 4 gusting 7 15.0
2020-Jan-26 12:30 265 2 gusting 10 15.0
2020-Jan-26 12:20 273 5 gusting 13 15.0
2020-Jan-26 12:15 242 5 gusting 13 15.6
2020-Jan-26 11:35 355 1 gusting 10 15.0
2020-Jan-26 11:10 343 15.0
2020-Jan-26 11:05 029 15.0
2020-Jan-26 10:55 343 15.0
2020-Jan-26 10:50 129 14.4
2020-Jan-26 10:25 051 1 gusting 10 12.8
2020-Jan-26 10:15 052 0 gusting 5 12.2
2020-Jan-26 10:10 043 3 gusting 6 12.2
2020-Jan-26 10:05 048 12.2
2020-Jan-26 09:50 080 11.1
2020-Jan-26 09:30 045 10.6
2020-Jan-26 08:55 031 4 gusting 10 9.4
2020-Jan-26 08:50 042 1 gusting 7 8.9
2020-Jan-26 08:35 094 8.9
2020-Jan-26 08:25 085 8.3
2020-Jan-26 08:10 036 5 gusting 8 8.3
2020-Jan-26 08:05 042 8.3
2020-Jan-26 07:20 033 2 gusting 11 7.8
2020-Jan-26 07:05 058 4 gusting 10 7.8
2020-Jan-26 06:55 045 6 gusting 7 7.8
2020-Jan-26 06:35 057 4 gusting 10 8.3
2020-Jan-26 06:10 021 5 gusting 10 7.8
2020-Jan-26 06:00 044 4 gusting 10 8.3
2020-Jan-26 05:55 026 7 gusting 10 8.3
2020-Jan-26 05:45 039 4 gusting 10 8.3
2020-Jan-26 05:35 021 4 gusting 7 8.3
2020-Jan-26 05:20 039 3 gusting 5 8.3
2020-Jan-26 05:10 038 5 gusting 7 8.3
2020-Jan-26 05:00 042 8.3
2020-Jan-26 04:45 020 8.3
2020-Jan-26 04:40 037 0 gusting 5 8.3
2020-Jan-26 04:35 042 4 gusting 8 8.3
2020-Jan-26 04:20 030 2 gusting 10 8.3
2020-Jan-26 04:10 033 6 gusting 10 8.3
2020-Jan-26 04:05 036 7 gusting 11 8.9
2020-Jan-26 03:55 025 6 gusting 11 8.9
2020-Jan-26 03:50 028 6 gusting 10 8.9
2020-Jan-26 03:35 024 4 gusting 8 8.9
2020-Jan-26 03:25 034 1 gusting 8 8.9
2020-Jan-26 03:15 029 6 gusting 8 8.3
2020-Jan-26 02:55 037 5 gusting 7 8.3
2020-Jan-26 02:50 025 2 gusting 5 8.3
2020-Jan-26 02:30 034 2 gusting 5 8.3
2020-Jan-26 02:05 044 7 gusting 10 8.9
2020-Jan-26 01:45 026 8.9
2020-Jan-26 01:30 042 8.9
2020-Jan-26 01:25 042 8.9
2020-Jan-26 01:15 058 2 gusting 6 8.9
2020-Jan-26 01:00 057 8.9
2020-Jan-26 00:45 047 4 gusting 6 9.4
2020-Jan-26 00:40 044 5 gusting 6 9.4
2020-Jan-26 00:20 036 5 gusting 6 9.4
2020-Jan-26 00:05 040 9.4
2020-Jan-25 23:40 044 10.0
2020-Jan-25 23:35 041 10.0
2020-Jan-25 23:20 031 10.0
2020-Jan-25 23:10 023 5 gusting 8 10.0
2020-Jan-25 23:05 027 5 gusting 8 10.0
2020-Jan-25 22:55 030 5 gusting 6 10.0
2020-Jan-25 22:30 054 5 gusting 7 10.0
2020-Jan-25 22:15 058 10.0
2020-Jan-25 22:10 057 0 gusting 6 10.0
2020-Jan-25 22:00 037 10.0
2020-Jan-25 21:55 037 4 gusting 5 10.0
2020-Jan-25 21:40 046 3 gusting 7 10.0
2020-Jan-25 21:35 046 2 gusting 7 10.0
2020-Jan-25 21:30 044 10.0
2020-Jan-25 21:25 055 10.0
2020-Jan-25 21:20 062 2 gusting 5 10.6
2020-Jan-25 21:15 047 0 gusting 6 10.6
2020-Jan-25 21:05 059 3 gusting 6 10.6
2020-Jan-25 21:00 054 0 gusting 5 10.6
2020-Jan-25 20:35 059 11.7
2020-Jan-25 20:30 082 11.1
2020-Jan-25 20:10 083 11.1
2020-Jan-25 20:00 078 11.1
2020-Jan-25 19:55 097 11.1
2020-Jan-25 19:50 099 11.1
2020-Jan-25 19:45 149 11.1
2020-Jan-25 19:30 150 11.7
2020-Jan-25 19:25 150 11.7
2020-Jan-25 19:05 150 12.2
2020-Jan-25 18:50 162 5 gusting 10 12.2
2020-Jan-25 18:45 157 3 gusting 8 12.2
2020-Jan-25 18:35 163 0 gusting 7 12.2
2020-Jan-25 18:10 152 12.2
2020-Jan-25 17:55 144 12.8
2020-Jan-25 17:45 154 12.2
2020-Jan-25 17:10 161 12.8
2020-Jan-25 17:05 165 12.8
2020-Jan-25 17:00 149 13.3
2020-Jan-25 16:55 164 13.3
2020-Jan-25 16:50 151 13.3
2020-Jan-25 16:45 156 13.3
2020-Jan-25 15:55 167 0 gusting 8 14.4
2020-Jan-25 15:50 154 5 gusting 8 14.4
2020-Jan-25 15:30 183 0 gusting 10 15.0
2020-Jan-25 15:20 172 6 gusting 12 15.0
2020-Jan-25 15:10 169 7 gusting 13 15.0
2020-Jan-25 14:50 215 4 gusting 13 15.0
2020-Jan-25 14:25 159 1 gusting 13 15.0
2020-Jan-25 14:15 161 8 gusting 14 15.6
2020-Jan-25 14:00 165 4 gusting 19 15.6
2020-Jan-25 13:55 150 7 gusting 17 15.6
2020-Jan-25 13:45 147 0 gusting 8 15.0
2020-Jan-25 13:25 140 6 gusting 19 15.0
2020-Jan-25 13:10 167 7 gusting 18 15.0
2020-Jan-25 13:05 163 6 gusting 14 15.0
2020-Jan-25 12:55 158 2 gusting 17 15.0
2020-Jan-25 12:50 168 5 gusting 12 15.0
2020-Jan-25 12:40 113 0 gusting 17 15.0
2020-Jan-25 12:35 123 4 gusting 17 14.4
2020-Jan-25 12:20 149 5 gusting 19 14.4
2020-Jan-25 12:15 142 6 gusting 17 14.4
2020-Jan-25 12:00 115 5 gusting 15 14.4
2020-Jan-25 11:50 148 6 gusting 14 15.0
2020-Jan-25 11:40 105 6 gusting 13 15.0
2020-Jan-25 11:35 131 1 gusting 11 15.6
2020-Jan-25 11:10 142 3 gusting 10 14.4
2020-Jan-25 11:05 130 1 gusting 14 14.4
2020-Jan-25 10:30 164 1 gusting 10 15.0
2020-Jan-25 10:25 157 4 gusting 14 15.0
2020-Jan-25 10:20 129 6 gusting 17 14.4
2020-Jan-25 10:05 184 1 gusting 17 14.4
2020-Jan-25 09:50 212 2 gusting 17 13.9
2020-Jan-25 09:45 121 2 gusting 17 13.9
2020-Jan-25 09:40 124 6 gusting 15 13.9
2020-Jan-25 09:35 154 7 gusting 19 13.9
2020-Jan-25 09:05 122 1 gusting 17 12.8
2020-Jan-25 09:00 135 11 gusting 22 12.8
2020-Jan-25 08:45 137 6 gusting 17 12.2
2020-Jan-25 08:30 154 6 gusting 25 12.2
2020-Jan-25 08:25 122 10 gusting 26 11.7
2020-Jan-25 08:20 162 7 gusting 26 11.7
2020-Jan-25 08:10 128 10 gusting 22 11.7
2020-Jan-25 08:00 132 9 gusting 20 11.7